GLOBALSTAR M004 [-]

Last updated on Fri Dec 29 2023 00:02:56 GMT+0000 (Coordinated Universal Time)

1 25163U 98008B 23361.88957307 -.00000007 00000+0 53168-3 0 9997 2 25163 51.9983 253.2595 0002851 158.9382 281.5167 12.63346611193777

Satellite not in orbit

GLOBALSTAR M004 [-]